Regional Weather Roundup
Issued by NWS

Home | Current Version | Previous Version | Text Only | Print | Product List | Glossary On
Versions: 1 2 3 4 5 6 7 8 9 10 11 12 13 14 15 16 17 18 19 20 21 22 23 24 25 26 27
000
ASUS44 KJAN 260510
RWRMS

MISSISSIPPI HOURLY WEATHER ROUNDUP
NATIONAL WEATHER SERVICE JACKSON MS
1200 AM CDT FRI MAY 26 2017

NOTE: "FAIR: INDICATES FEW OR NO CLOUDS BELOW 12,000 FEET WITH NO
SIGNIFICANT WEATHER AND/OR OBSTRUCTIONS TO VISIBILITY.

MSZ001>002-007>008-010>013-018>021-025>028-034>036-260600-
NORTHWEST MISSISSIPPI

CITY           SKY/WX    TMP DP  RH WIND       PRES   REMARKS
BATESVILLE     FAIR      59  57  94 CALM      29.86S
CLARKSDALE       N/A     66  63  88 MISG      29.83S
CLEVELAND      FAIR      69  60  73 S8        29.82S
GREENWOOD      CLEAR     65  58  78 S7        29.84F
GREENVILLE     CLEAR     69  57  65 S8        29.82S
OXFORD         FAIR      63  55  77 S6        29.88S
TUNICA         PTCLDY    63  59  88 S7        29.84S
WINONA         FAIR      60  60 100 CALM      29.87S
$$

MSZ003>006-009-014>017-022>024-029>033-037>039-260600-
NORTHEAST MISSISSIPPI

CITY           SKY/WX    TMP DP  RH WIND       PRES   REMARKS
COLUMBUS AFB   CLEAR     59  58  97 SE6       29.89S
CORINTH        FAIR      57  55  94 CALM      29.88S
GOLDN TRIANGLE CLEAR     63  52  67 S5        29.86R
STARKVILLE     FAIR      61  55  82 CALM      29.90S
TUPELO         CLEAR     61  56  83 CALM      29.88R
$$

MSZ040-058-260600-
CENTRAL MISSISSIPPI

CITY           SKY/WX    TMP DP  RH WIND       PRES   REMARKS
JACKSON INTL   CLEAR     67  58  72 S8        29.89R
JACKSON HAWKNS CLEAR     67  58  72 S5        29.89R
MADISON        FAIR      64  57  77 CALM      29.88S
MERIDIAN KEY   CLEAR     62  60  93 CALM      29.92S
MERIDIAN NAS   CLEAR     63  54  72 S3        29.92S
VICKSBURG VKS  CLEAR     72  63  73 S9G16     29.83S
$$

MSZ059>079-260600-
SOUTH MISSISSIPPI

CITY           SKY/WX    TMP DP  RH WIND       PRES   REMARKS
COLUMBIA       FAIR      66  59  77 S3        29.94F
HATTIESBURG    CLEAR     64  60  87 CALM      29.93S
LAUREL         FAIR      65  61  89 CALM      29.93S
MCCOMB         CLEAR     67  60  78 S5        29.91S
NATCHEZ        CLEAR     70  63  78 S10       29.87F
PINE BELT      NOT AVBL
$$

MSZ080>082-260600-
COASTAL MISSISSIPPI

CITY           SKY/WX    TMP DP  RH WIND       PRES   REMARKS
BILOXI         CLEAR     74  62  66 SW10      29.93F
PASCAGOULA     CLEAR     64  61  90 CALM      29.94F
GULFPORT       CLEAR     74  62  66 VRB3      29.93S
$$

LAZ007>009-015>016-023>026-260600-
NORTHEAST LOUISIANA

CITY           SKY/WX    TMP DP  RH WIND       PRES   REMARKS
BASTROP        FAIR      71  68  90 S6        29.83R
TALLULAH/VBURG CLEAR     68  63  84 S7        29.84F
VIDALIA        FAIR      70  64  82 S9        29.85F
$$




USA.gov is the U.S. government's official web portal to all federal, state and local government web resources and services.